owner,sensor,date,latitude,longitude,vertical_datum,sea_water_practical_salinity,qcFlag 
COMPS,ioos:station:USF.COMPS:FHP:1,2015-03-01T02:00:00Z,28.1530,-82.8010,,15.604,1111122 
COMPS,ioos:station:USF.COMPS:FHP:1,2015-03-01T02:06:00Z,28.1530,-82.8010,,15.832,1111122 
COMPS,ioos:station:USF.COMPS:FHP:1,2015-03-01T02:12:00Z,28.1530,-82.8010,,15.82,1111122 
COMPS,ioos:station:USF.COMPS:FHP:1,2015-03-01T02:18:00Z,28.1530,-82.8010,,15.749,1111122 
COMPS,ioos:station:USF.COMPS:FHP:1,2015-03-01T02:24:00Z,28.1530,-82.8010,,15.747,1111122 
COMPS,ioos:station:USF.COMPS:FHP:1,2015-03-01T02:30:00Z,28.1530,-82.8010,,15.594,1111122 
COMPS,ioos:station:USF.COMPS:FHP:1,2015-03-01T02:36:00Z,28.1530,-82.8010,,15.49,1111122 
COMPS,ioos:station:USF.COMPS:FHP:1,2015-03-01T02:42:00Z,28.1530,-82.8010,,15.402,1111122 
COMPS,ioos:station:USF.COMPS:FHP:1,2015-03-01T02:48:00Z,28.1530,-82.8010,,15.438,1111122 
COMPS,ioos:station:USF.COMPS:FHP:1,2015-03-01T02:54:00Z,28.1530,-82.8010,,15.616,1111122 
COMPS,ioos:station:USF.COMPS:FHP:1,2015-03-01T03:00:00Z,28.1530,-82.8010,,15.662,1111122 
COMPS,ioos:station:USF.COMPS:FHP:1,2015-03-01T03:06:00Z,28.1530,-82.8010,,15.702,1111122 
COMPS,ioos:station:USF.COMPS:FHP:1,2015-03-01T03:12:00Z,28.1530,-82.8010,,15.803,1111122 
COMPS,ioos:station:USF.COMPS:FHP:1,2015-03-01T03:18:00Z,28.1530,-82.8010,,15.702,1111122 
COMPS,ioos:station:USF.COMPS:FHP:1,2015-03-01T03:24:00Z,28.1530,-82.8010,,15.711,1111122 
COMPS,ioos:station:USF.COMPS:FHP:1,2015-03-01T03:30:00Z,28.1530,-82.8010,,15.503,1111122 
COMPS,ioos:station:USF.COMPS:FHP:1,2015-03-01T03:36:00Z,28.1530,-82.8010,,15.505,1111122 
COMPS,ioos:station:USF.COMPS:FHP:1,2015-03-01T03:42:00Z,28.1530,-82.8010,,15.481,1111122 
COMPS,ioos:station:USF.COMPS:FHP:1,2015-03-01T03:48:00Z,28.1530,-82.8010,,15.316,1111122 
COMPS,ioos:station:USF.COMPS:FHP:1,2015-03-01T03:54:00Z,28.1530,-82.8010,,15.301,1111122 
COMPS,ioos:station:USF.COMPS:FHP:1,2015-03-01T13:00:00Z,28.1530,-82.8010,,12.813,1111122 
COMPS,ioos:station:USF.COMPS:FHP:1,2015-03-01T13:06:00Z,28.1530,-82.8010,,15.321,1111122 
COMPS,ioos:station:USF.COMPS:FHP:1,2015-03-01T13:12:00Z,28.1530,-82.8010,,15.684,1111122 
COMPS,ioos:station:USF.COMPS:FHP:1,2015-03-01T13:18:00Z,28.1530,-82.8010,,15.743,1111122 
COMPS,ioos:station:USF.COMPS:FHP:1,2015-03-01T13:24:00Z,28.1530,-82.8010,,15.662,1111122 
COMPS,ioos:station:USF.COMPS:FHP:1,2015-03-01T13:30:00Z,28.1530,-82.8010,,15.575,1111122 
COMPS,ioos:station:USF.COMPS:FHP:1,2015-03-01T13:36:00Z,28.1530,-82.8010,,15.509,1111122 
COMPS,ioos:station:USF.COMPS:FHP:1,2015-03-01T13:42:00Z,28.1530,-82.8010,,15.536,1111122 
COMPS,ioos:station:USF.COMPS:FHP:1,2015-03-01T13:48:00Z,28.1530,-82.8010,,15.505,1111122 
COMPS,ioos:station:USF.COMPS:FHP:1,2015-03-01T13:54:00Z,28.1530,-82.8010,,15.532,1111122 
COMPS,ioos:station:USF.COMPS:FHP:1,2015-03-01T14:00:00Z,28.1530,-82.8010,,15.375,1111122 
COMPS,ioos:station:USF.COMPS:FHP:1,2015-03-01T14:06:00Z,28.1530,-82.8010,,15.577,1111122 
COMPS,ioos:station:USF.COMPS:FHP:1,2015-03-01T14:12:00Z,28.1530,-82.8010,,15.536,1111122 
COMPS,ioos:station:USF.COMPS:FHP:1,2015-03-01T14:18:00Z,28.1530,-82.8010,,15.495,1111122 
COMPS,ioos:station:USF.COMPS:FHP:1,2015-03-01T14:24:00Z,28.1530,-82.8010,,15.534,1111122 
COMPS,ioos:station:USF.COMPS:FHP:1,2015-03-01T14:30:00Z,28.1530,-82.8010,,15.37,1111122 
COMPS,ioos:station:USF.COMPS:FHP:1,2015-03-01T14:36:00Z,28.1530,-82.8010,,15.381,1111122 
COMPS,ioos:station:USF.COMPS:FHP:1,2015-03-01T14:42:00Z,28.1530,-82.8010,,15.323,1111122 
COMPS,ioos:station:USF.COMPS:FHP:1,2015-03-01T14:48:00Z,28.1530,-82.8010,,15.365,1111122 
COMPS,ioos:station:USF.COMPS:FHP:1,2015-03-01T14:54:00Z,28.1530,-82.8010,,15.434,1111122 
COMPS,ioos:station:USF.COMPS:FHP:1,2015-03-01T15:00:00Z,28.1530,-82.8010,,15.421,1111122 
COMPS,ioos:station:USF.COMPS:FHP:1,2015-03-01T15:06:00Z,28.1530,-82.8010,,15.416,1111122 
COMPS,ioos:station:USF.COMPS:FHP:1,2015-03-01T15:12:00Z,28.1530,-82.8010,,15.482,1111122 
COMPS,ioos:station:USF.COMPS:FHP:1,2015-03-01T15:18:00Z,28.1530,-82.8010,,15.472,1111122 
COMPS,ioos:station:USF.COMPS:FHP:1,2015-03-01T15:24:00Z,28.1530,-82.8010,,15.594,1111122 
COMPS,ioos:station:USF.COMPS:FHP:1,2015-03-01T15:30:00Z,28.1530,-82.8010,,15.623,1111122 
COMPS,ioos:station:USF.COMPS:FHP:1,2015-03-01T15:36:00Z,28.1530,-82.8010,,15.596,1111122 
COMPS,ioos:station:USF.COMPS:FHP:1,2015-03-01T15:42:00Z,28.1530,-82.8010,,15.523,1111122 
COMPS,ioos:station:USF.COMPS:FHP:1,2015-03-01T15:48:00Z,28.1530,-82.8010,,15.488,1111122 
COMPS,ioos:station:USF.COMPS:FHP:1,2015-03-01T15:54:00Z,28.1530,-82.8010,,15.568,1111122 
COMPS,ioos:station:USF.COMPS:FHP:1,2015-03-01T16:00:00Z,28.1530,-82.8010,,15.591,1111122 
COMPS,ioos:station:USF.COMPS:FHP:1,2015-03-01T16:06:00Z,28.1530,-82.8010,,15.567,1111122 
COMPS,ioos:station:USF.COMPS:FHP:1,2015-03-01T16:12:00Z,28.1530,-82.8010,,15.789,1111122 
COMPS,ioos:station:USF.COMPS:FHP:1,2015-03-01T16:18:00Z,28.1530,-82.8010,,15.738,1111122 
COMPS,ioos:station:USF.COMPS:FHP:1,2015-03-01T16:24:00Z,28.1530,-82.8010,,15.79,1111122 
COMPS,ioos:station:USF.COMPS:FHP:1,2015-03-01T16:30:00Z,28.1530,-82.8010,,15.643,1111122 
COMPS,ioos:station:USF.COMPS:FHP:1,2015-03-01T16:36:00Z,28.1530,-82.8010,,15.657,1111122 
COMPS,ioos:station:USF.COMPS:FHP:1,2015-03-01T16:42:00Z,28.1530,-82.8010,,15.572,1111122 
COMPS,ioos:station:USF.COMPS:FHP:1,2015-03-01T16:48:00Z,28.1530,-82.8010,,15.573,1111122 
COMPS,ioos:station:USF.COMPS:FHP:1,2015-03-01T16:54:00Z,28.1530,-82.8010,,15.602,1111122 
COMPS,ioos:station:USF.COMPS:FHP:1,2015-03-01T17:00:00Z,28.1530,-82.8010,,15.587,1111122 
COMPS,ioos:station:USF.COMPS:FHP:1,2015-03-01T17:06:00Z,28.1530,-82.8010,,15.612,1111122 
COMPS,ioos:station:USF.COMPS:FHP:1,2015-03-01T17:12:00Z,28.1530,-82.8010,,15.653,1111122 
COMPS,ioos:station:USF.COMPS:FHP:1,2015-03-01T17:18:00Z,28.1530,-82.8010,,16.012,1111122 
COMPS,ioos:station:USF.COMPS:FHP:1,2015-03-01T17:24:00Z,28.1530,-82.8010,,15.988,1111122 
COMPS,ioos:station:USF.COMPS:FHP:1,2015-03-01T17:30:00Z,28.1530,-82.8010,,15.77,1111122 
COMPS,ioos:station:USF.COMPS:FHP:1,2015-03-01T17:36:00Z,28.1530,-82.8010,,15.802,1111122 
COMPS,ioos:station:USF.COMPS:FHP:1,2015-03-01T17:42:00Z,28.1530,-82.8010,,15.656,1111122 
COMPS,ioos:station:USF.COMPS:FHP:1,2015-03-01T17:48:00Z,28.1530,-82.8010,,15.577,1111122 
COMPS,ioos:station:USF.COMPS:FHP:1,2015-03-01T17:54:00Z,28.1530,-82.8010,,15.543,1111122 
COMPS,ioos:station:USF.COMPS:FHP:1,2015-03-01T18:00:00Z,28.1530,-82.8010,,15.434,1111122 
COMPS,ioos:station:USF.COMPS:FHP:1,2015-03-01T18:06:00Z,28.1530,-82.8010,,15.402,1111122 
COMPS,ioos:station:USF.COMPS:FHP:1,2015-03-01T18:12:00Z,28.1530,-82.8010,,15.401,1111122 
COMPS,ioos:station:USF.COMPS:FHP:1,2015-03-01T18:18:00Z,28.1530,-82.8010,,15.399,1111122 
COMPS,ioos:station:USF.COMPS:FHP:1,2015-03-01T18:24:00Z,28.1530,-82.8010,,15.399,1111122 
COMPS,ioos:station:USF.COMPS:FHP:1,2015-03-01T18:30:00Z,28.1530,-82.8010,,15.524,1111122 
COMPS,ioos:station:USF.COMPS:FHP:1,2015-03-01T18:36:00Z,28.1530,-82.8010,,15.682,1111122 
COMPS,ioos:station:USF.COMPS:FHP:1,2015-03-01T18:42:00Z,28.1530,-82.8010,,15.542,1111122 
COMPS,ioos:station:USF.COMPS:FHP:1,2015-03-01T18:48:00Z,28.1530,-82.8010,,15.458,1111122 
COMPS,ioos:station:USF.COMPS:FHP:1,2015-03-01T18:54:00Z,28.1530,-82.8010,,15.427,1111122 
COMPS,ioos:station:USF.COMPS:FHP:1,2015-03-01T19:00:00Z,28.1530,-82.8010,,15.373,1111122 
COMPS,ioos:station:USF.COMPS:FHP:1,2015-03-01T19:06:00Z,28.1530,-82.8010,,15.29,1111122 
COMPS,ioos:station:USF.COMPS:FHP:1,2015-03-01T19:12:00Z,28.1530,-82.8010,,15.021,1111122 
COMPS,ioos:station:USF.COMPS:FHP:1,2015-03-01T19:18:00Z,28.1530,-82.8010,,15.014,1111122 
COMPS,ioos:station:USF.COMPS:FHP:1,2015-03-01T19:24:00Z,28.1530,-82.8010,,14.852,1111122 
COMPS,ioos:station:USF.COMPS:FHP:1,2015-03-01T19:30:00Z,28.1530,-82.8010,,14.301,1111122 
COMPS,ioos:station:USF.COMPS:FHP:1,2015-03-01T19:36:00Z,28.1530,-82.8010,,10.702,1111122 
COMPS,ioos:station:USF.COMPS:FHP:1,2015-03-01T19:42:00Z,28.1530,-82.8010,,6.222,1111122 
COMPS,ioos:station:USF.COMPS:FHP:1,2015-03-01T19:48:00Z,28.1530,-82.8010,,6.8,1111122 
COMPS,ioos:station:USF.COMPS:FHP:1,2015-03-01T19:54:00Z,28.1530,-82.8010,,13.086,1111122 
COMPS,ioos:station:USF.COMPS:FHP:1,2015-03-01T20:00:00Z,28.1530,-82.8010,,13.266,1111122 
COMPS,ioos:station:USF.COMPS:FHP:1,2015-03-01T20:06:00Z,28.1530,-82.8010,,14.698,1111122 
COMPS,ioos:station:USF.COMPS:FHP:1,2015-03-01T20:12:00Z,28.1530,-82.8010,,12.407,1111122 
COMPS,ioos:station:USF.COMPS:FHP:1,2015-03-01T20:18:00Z,28.1530,-82.8010,,11.959,1111122 
COMPS,ioos:station:USF.COMPS:FHP:1,2015-03-01T20:24:00Z,28.1530,-82.8010,,12.984,1111122 
COMPS,ioos:station:USF.COMPS:FHP:1,2015-03-01T20:30:00Z,28.1530,-82.8010,,12.973,1111122 
COMPS,ioos:station:USF.COMPS:FHP:1,2015-03-01T20:36:00Z,28.1530,-82.8010,,11.956,1111122 
COMPS,ioos:station:USF.COMPS:FHP:1,2015-03-01T20:42:00Z,28.1530,-82.8010,,14.1,1111122 
COMPS,ioos:station:USF.COMPS:FHP:1,2015-03-01T20:48:00Z,28.1530,-82.8010,,14.388,1111122 
COMPS,ioos:station:USF.COMPS:FHP:1,2015-03-01T20:54:00Z,28.1530,-82.8010,,14.25,1111122 
COMPS,ioos:station:USF.COMPS:FHP:1,2015-03-01T23:00:00Z,28.1530,-82.8010,,15.406,1111122 
COMPS,ioos:station:USF.COMPS:FHP:1,2015-03-01T23:06:00Z,28.1530,-82.8010,,15.578,1111122 
COMPS,ioos:station:USF.COMPS:FHP:1,2015-03-01T23:12:00Z,28.1530,-82.8010,,15.762,1111122 
COMPS,ioos:station:USF.COMPS:FHP:1,2015-03-01T23:18:00Z,28.1530,-82.8010,,15.804,1111122 
COMPS,ioos:station:USF.COMPS:FHP:1,2015-03-01T23:24:00Z,28.1530,-82.8010,,15.843,1111122 
COMPS,ioos:station:USF.COMPS:FHP:1,2015-03-01T23:30:00Z,28.1530,-82.8010,,16.263,1111122 
COMPS,ioos:station:USF.COMPS:FHP:1,2015-03-01T23:36:00Z,28.1530,-82.8010,,16.198,1111122 
COMPS,ioos:station:USF.COMPS:FHP:1,2015-03-01T23:42:00Z,28.1530,-82.8010,,16.109,1111122 
COMPS,ioos:station:USF.COMPS:FHP:1,2015-03-01T23:48:00Z,28.1530,-82.8010,,16.226,1111122 
COMPS,ioos:station:USF.COMPS:FHP:1,2015-03-01T23:54:00Z,28.1530,-82.8010,,16.247,1111122 
COMPS,ioos:station:USF.COMPS:FHP:1,2015-03-02T00:00:00Z,28.1530,-82.8010,,16.286,1111122 
COMPS,ioos:station:USF.COMPS:FHP:1,2015-03-02T00:06:00Z,28.1530,-82.8010,,16.375,1111122 
COMPS,ioos:station:USF.COMPS:FHP:1,2015-03-02T00:12:00Z,28.1530,-82.8010,,16.598,1111122 
COMPS,ioos:station:USF.COMPS:FHP:1,2015-03-02T00:18:00Z,28.1530,-82.8010,,17.065,1111122 
COMPS,ioos:station:USF.COMPS:FHP:1,2015-03-02T00:24:00Z,28.1530,-82.8010,,17.184,1111122 
COMPS,ioos:station:USF.COMPS:FHP:1,2015-03-02T00:30:00Z,28.1530,-82.8010,,17.171,1111122 
COMPS,ioos:station:USF.COMPS:FHP:1,2015-03-02T00:36:00Z,28.1530,-82.8010,,17.157,1111122 
COMPS,ioos:station:USF.COMPS:FHP:1,2015-03-02T00:42:00Z,28.1530,-82.8010,,17.14,1111122 
COMPS,ioos:station:USF.COMPS:FHP:1,2015-03-02T00:48:00Z,28.1530,-82.8010,,17.015,1111122 
COMPS,ioos:station:USF.COMPS:FHP:1,2015-03-02T00:54:00Z,28.1530,-82.8010,,16.404,1111122 
COMPS,ioos:station:USF.COMPS:FHP:1,2015-03-02T02:00:00Z,28.1530,-82.8010,,15.037,1111122 
COMPS,ioos:station:USF.COMPS:FHP:1,2015-03-02T02:06:00Z,28.1530,-82.8010,,14.999,1111122 
COMPS,ioos:station:USF.COMPS:FHP:1,2015-03-02T02:12:00Z,28.1530,-82.8010,,14.985,1111122 
COMPS,ioos:station:USF.COMPS:FHP:1,2015-03-02T02:18:00Z,28.1530,-82.8010,,15.436,1111122 
COMPS,ioos:station:USF.COMPS:FHP:1,2015-03-02T02:24:00Z,28.1530,-82.8010,,15.243,1111122 
COMPS,ioos:station:USF.COMPS:FHP:1,2015-03-02T02:30:00Z,28.1530,-82.8010,,15.123,1111122 
COMPS,ioos:station:USF.COMPS:FHP:1,2015-03-02T02:36:00Z,28.1530,-82.8010,,15.513,1111122 
COMPS,ioos:station:USF.COMPS:FHP:1,2015-03-02T02:42:00Z,28.1530,-82.8010,,15.757,1111122 
COMPS,ioos:station:USF.COMPS:FHP:1,2015-03-02T02:48:00Z,28.1530,-82.8010,,15.76,1111122 
COMPS,ioos:station:USF.COMPS:FHP:1,2015-03-02T02:54:00Z,28.1530,-82.8010,,15.797,1111122 
COMPS,ioos:station:USF.COMPS:FHP:1,2015-03-02T04:00:00Z,28.1530,-82.8010,,15.666,1111122 
COMPS,ioos:station:USF.COMPS:FHP:1,2015-03-02T04:06:00Z,28.1530,-82.8010,,15.515,1111122 
COMPS,ioos:station:USF.COMPS:FHP:1,2015-03-02T04:12:00Z,28.1530,-82.8010,,15.527,1111122 
COMPS,ioos:station:USF.COMPS:FHP:1,2015-03-02T04:18:00Z,28.1530,-82.8010,,15.577,1111122 
COMPS,ioos:station:USF.COMPS:FHP:1,2015-03-02T04:24:00Z,28.1530,-82.8010,,15.784,1111122 
COMPS,ioos:station:USF.COMPS:FHP:1,2015-03-02T04:30:00Z,28.1530,-82.8010,,15.61,1111122 
COMPS,ioos:station:USF.COMPS:FHP:1,2015-03-02T04:36:00Z,28.1530,-82.8010,,15.596,1111122 
COMPS,ioos:station:USF.COMPS:FHP:1,2015-03-02T04:42:00Z,28.1530,-82.8010,,15.668,1111122 
COMPS,ioos:station:USF.COMPS:FHP:1,2015-03-02T04:48:00Z,28.1530,-82.8010,,15.664,1111122 
COMPS,ioos:station:USF.COMPS:FHP:1,2015-03-02T04:54:00Z,28.1530,-82.8010,,15.65,1111122 
COMPS,ioos:station:USF.COMPS:FHP:1,2015-03-02T06:00:00Z,28.1530,-82.8010,,15.539,1111122 
COMPS,ioos:station:USF.COMPS:FHP:1,2015-03-02T06:06:00Z,28.1530,-82.8010,,15.228,1111122 
COMPS,ioos:station:USF.COMPS:FHP:1,2015-03-02T06:12:00Z,28.1530,-82.8010,,13.653,1111122 
COMPS,ioos:station:USF.COMPS:FHP:1,2015-03-02T13:18:00Z,28.1530,-82.8010,,4.99,1111122 
COMPS,ioos:station:USF.COMPS:FHP:1,2015-03-02T13:24:00Z,28.1530,-82.8010,,13.125,1111122 
COMPS,ioos:station:USF.COMPS:FHP:1,2015-03-02T13:30:00Z,28.1530,-82.8010,,16.177,1111122 
COMPS,ioos:station:USF.COMPS:FHP:1,2015-03-02T13:36:00Z,28.1530,-82.8010,,16.426,1111122 
COMPS,ioos:station:USF.COMPS:FHP:1,2015-03-02T13:42:00Z,28.1530,-82.8010,,16.442,1111122 
COMPS,ioos:station:USF.COMPS:FHP:1,2015-03-02T13:48:00Z,28.1530,-82.8010,,16.534,1111122 
COMPS,ioos:station:USF.COMPS:FHP:1,2015-03-02T13:54:00Z,28.1530,-82.8010,,16.55,1111122 
COMPS,ioos:station:USF.COMPS:FHP:1,2015-03-02T15:00:00Z,28.1530,-82.8010,,16.507,1111122 
COMPS,ioos:station:USF.COMPS:FHP:1,2015-03-02T15:06:00Z,28.1530,-82.8010,,16.407,1111122 
COMPS,ioos:station:USF.COMPS:FHP:1,2015-03-02T15:12:00Z,28.1530,-82.8010,,16.398,1111122 
COMPS,ioos:station:USF.COMPS:FHP:1,2015-03-02T15:18:00Z,28.1530,-82.8010,,16.254,1111122 
COMPS,ioos:station:USF.COMPS:FHP:1,2015-03-02T15:24:00Z,28.1530,-82.8010,,16.321,1111122 
COMPS,ioos:station:USF.COMPS:FHP:1,2015-03-02T15:30:00Z,28.1530,-82.8010,,16.437,1111122 
COMPS,ioos:station:USF.COMPS:FHP:1,2015-03-02T15:36:00Z,28.1530,-82.8010,,16.541,1111122 
COMPS,ioos:station:USF.COMPS:FHP:1,2015-03-02T15:42:00Z,28.1530,-82.8010,,16.493,1111122 
COMPS,ioos:station:USF.COMPS:FHP:1,2015-03-02T15:48:00Z,28.1530,-82.8010,,16.643,1111122 
COMPS,ioos:station:USF.COMPS:FHP:1,2015-03-02T15:54:00Z,28.1530,-82.8010,,16.466,1111122 
COMPS,ioos:station:USF.COMPS:FHP:1,2015-03-02T16:00:00Z,28.1530,-82.8010,,16.513,1111122 
COMPS,ioos:station:USF.COMPS:FHP:1,2015-03-02T16:06:00Z,28.1530,-82.8010,,16.733,1111122 
COMPS,ioos:station:USF.COMPS:FHP:1,2015-03-02T16:12:00Z,28.1530,-82.8010,,16.695,1111122 
COMPS,ioos:station:USF.COMPS:FHP:1,2015-03-02T16:18:00Z,28.1530,-82.8010,,16.922,1111122 
COMPS,ioos:station:USF.COMPS:FHP:1,2015-03-02T16:24:00Z,28.1530,-82.8010,,17.244,1111122 
COMPS,ioos:station:USF.COMPS:FHP:1,2015-03-02T16:30:00Z,28.1530,-82.8010,,17.326,1111122 
COMPS,ioos:station:USF.COMPS:FHP:1,2015-03-02T16:36:00Z,28.1530,-82.8010,,17.341,1111122 
COMPS,ioos:station:USF.COMPS:FHP:1,2015-03-02T16:42:00Z,28.1530,-82.8010,,17.366,1111122 
COMPS,ioos:station:USF.COMPS:FHP:1,2015-03-02T16:48:00Z,28.1530,-82.8010,,17.399,1111122 
COMPS,ioos:station:USF.COMPS:FHP:1,2015-03-02T16:54:00Z,28.1530,-82.8010,,17.459,1111122 
COMPS,ioos:station:USF.COMPS:FHP:1,2015-03-02T19:00:00Z,28.1530,-82.8010,,16.337,1111122 
COMPS,ioos:station:USF.COMPS:FHP:1,2015-03-02T19:06:00Z,28.1530,-82.8010,,16.276,1111122 
COMPS,ioos:station:USF.COMPS:FHP:1,2015-03-02T19:12:00Z,28.1530,-82.8010,,16.248,1111122 
COMPS,ioos:station:USF.COMPS:FHP:1,2015-03-02T19:18:00Z,28.1530,-82.8010,,16.264,1111122 
COMPS,ioos:station:USF.COMPS:FHP:1,2015-03-02T19:24:00Z,28.1530,-82.8010,,15.889,1111122 
COMPS,ioos:station:USF.COMPS:FHP:1,2015-03-02T19:30:00Z,28.1530,-82.8010,,14.928,1111122 
COMPS,ioos:station:USF.COMPS:FHP:1,2015-03-02T19:36:00Z,28.1530,-82.8010,,10.071,1111122 
COMPS,ioos:station:USF.COMPS:FHP:1,2015-03-02T23:12:00Z,28.1530,-82.8010,,12.944,1111122 
COMPS,ioos:station:USF.COMPS:FHP:1,2015-03-02T23:18:00Z,28.1530,-82.8010,,15.936,1111122 
COMPS,ioos:station:USF.COMPS:FHP:1,2015-03-02T23:24:00Z,28.1530,-82.8010,,16.342,1111122 
COMPS,ioos:station:USF.COMPS:FHP:1,2015-03-02T23:30:00Z,28.1530,-82.8010,,16.418,1111122 
COMPS,ioos:station:USF.COMPS:FHP:1,2015-03-02T23:36:00Z,28.1530,-82.8010,,16.379,1111122 
COMPS,ioos:station:USF.COMPS:FHP:1,2015-03-02T23:42:00Z,28.1530,-82.8010,,16.37,1111122 
COMPS,ioos:station:USF.COMPS:FHP:1,2015-03-02T23:48:00Z,28.1530,-82.8010,,16.347,1111122 
COMPS,ioos:station:USF.COMPS:FHP:1,2015-03-02T23:54:00Z,28.1530,-82.8010,,16.323,1111122 
COMPS,ioos:station:USF.COMPS:FHP:1,2015-03-03T02:00:00Z,28.1530,-82.8010,,16.042,1111122 
COMPS,ioos:station:USF.COMPS:FHP:1,2015-03-03T02:06:00Z,28.1530,-82.8010,,16.103,1111122 
COMPS,ioos:station:USF.COMPS:FHP:1,2015-03-03T02:12:00Z,28.1530,-82.8010,,16.171,1111122 
COMPS,ioos:station:USF.COMPS:FHP:1,2015-03-03T02:18:00Z,28.1530,-82.8010,,16.237,1111122 
COMPS,ioos:station:USF.COMPS:FHP:1,2015-03-03T02:24:00Z,28.1530,-82.8010,,16.182,1111122 
COMPS,ioos:station:USF.COMPS:FHP:1,2015-03-03T02:30:00Z,28.1530,-82.8010,,16.258,1111122 
COMPS,ioos:station:USF.COMPS:FHP:1,2015-03-03T02:36:00Z,28.1530,-82.8010,,16.332,1111122 
COMPS,ioos:station:USF.COMPS:FHP:1,2015-03-03T02:42:00Z,28.1530,-82.8010,,16.603,1111122 
COMPS,ioos:station:USF.COMPS:FHP:1,2015-03-03T02:48:00Z,28.1530,-82.8010,,16.815,1111122 
COMPS,ioos:station:USF.COMPS:FHP:1,2015-03-03T02:54:00Z,28.1530,-82.8010,,16.763,1111122 
COMPS,ioos:station:USF.COMPS:FHP:1,2015-03-03T03:00:00Z,28.1530,-82.8010,,16.734,1111122 
COMPS,ioos:station:USF.COMPS:FHP:1,2015-03-03T03:06:00Z,28.1530,-82.8010,,16.744,1111122 
COMPS,ioos:station:USF.COMPS:FHP:1,2015-03-03T03:12:00Z,28.1530,-82.8010,,16.725,1111122 
COMPS,ioos:station:USF.COMPS:FHP:1,2015-03-03T03:18:00Z,28.1530,-82.8010,,16.666,1111122 
COMPS,ioos:station:USF.COMPS:FHP:1,2015-03-03T03:24:00Z,28.1530,-82.8010,,16.624,1111122 
COMPS,ioos:station:USF.COMPS:FHP:1,2015-03-03T03:30:00Z,28.1530,-82.8010,,16.627,1111122 
COMPS,ioos:station:USF.COMPS:FHP:1,2015-03-03T03:36:00Z,28.1530,-82.8010,,16.627,1111122 
COMPS,ioos:station:USF.COMPS:FHP:1,2015-03-03T03:42:00Z,28.1530,-82.8010,,16.629,1111122 
COMPS,ioos:station:USF.COMPS:FHP:1,2015-03-03T03:48:00Z,28.1530,-82.8010,,16.603,1111122 
COMPS,ioos:station:USF.COMPS:FHP:1,2015-03-03T03:54:00Z,28.1530,-82.8010,,16.588,1111122 
COMPS,ioos:station:USF.COMPS:FHP:1,2015-03-03T04:00:00Z,28.1530,-82.8010,,16.613,1111122 
COMPS,ioos:station:USF.COMPS:FHP:1,2015-03-03T04:06:00Z,28.1530,-82.8010,,16.376,1111122 
COMPS,ioos:station:USF.COMPS:FHP:1,2015-03-03T04:12:00Z,28.1530,-82.8010,,16.018,1111122 
COMPS,ioos:station:USF.COMPS:FHP:1,2015-03-03T04:18:00Z,28.1530,-82.8010,,15.959,1111122 
COMPS,ioos:station:USF.COMPS:FHP:1,2015-03-03T04:24:00Z,28.1530,-82.8010,,15.937,1111122 
COMPS,ioos:station:USF.COMPS:FHP:1,2015-03-03T04:30:00Z,28.1530,-82.8010,,15.966,1111122 
COMPS,ioos:station:USF.COMPS:FHP:1,2015-03-03T04:36:00Z,28.1530,-82.8010,,15.913,1111122 
COMPS,ioos:station:USF.COMPS:FHP:1,2015-03-03T04:42:00Z,28.1530,-82.8010,,15.886,1111122 
COMPS,ioos:station:USF.COMPS:FHP:1,2015-03-03T04:48:00Z,28.1530,-82.8010,,15.857,1111122 
COMPS,ioos:station:USF.COMPS:FHP:1,2015-03-03T04:54:00Z,28.1530,-82.8010,,15.819,1111122 
COMPS,ioos:station:USF.COMPS:FHP:1,2015-03-03T05:00:00Z,28.1530,-82.8010,,15.846,1111122 
COMPS,ioos:station:USF.COMPS:FHP:1,2015-03-03T05:06:00Z,28.1530,-82.8010,,15.963,1111122 
COMPS,ioos:station:USF.COMPS:FHP:1,2015-03-03T05:12:00Z,28.1530,-82.8010,,15.935,1111122 
COMPS,ioos:station:USF.COMPS:FHP:1,2015-03-03T05:18:00Z,28.1530,-82.8010,,15.947,1111122 
COMPS,ioos:station:USF.COMPS:FHP:1,2015-03-03T05:24:00Z,28.1530,-82.8010,,16.003,1111122 
COMPS,ioos:station:USF.COMPS:FHP:1,2015-03-03T05:30:00Z,28.1530,-82.8010,,15.905,1111122 
COMPS,ioos:station:USF.COMPS:FHP:1,2015-03-03T05:36:00Z,28.1530,-82.8010,,15.775,1111122 
COMPS,ioos:station:USF.COMPS:FHP:1,2015-03-03T05:42:00Z,28.1530,-82.8010,,15.866,1111122 
COMPS,ioos:station:USF.COMPS:FHP:1,2015-03-03T05:48:00Z,28.1530,-82.8010,,15.604,1111122 
COMPS,ioos:station:USF.COMPS:FHP:1,2015-03-03T05:54:00Z,28.1530,-82.8010,,15.602,1111122 
COMPS,ioos:station:USF.COMPS:FHP:1,2015-03-03T06:00:00Z,28.1530,-82.8010,,15.549,1111122 
COMPS,ioos:station:USF.COMPS:FHP:1,2015-03-03T06:06:00Z,28.1530,-82.8010,,15.526,1111122 
COMPS,ioos:station:USF.COMPS:FHP:1,2015-03-03T06:12:00Z,28.1530,-82.8010,,15.869,1111122 
COMPS,ioos:station:USF.COMPS:FHP:1,2015-03-03T06:18:00Z,28.1530,-82.8010,,15.633,1111122 
COMPS,ioos:station:USF.COMPS:FHP:1,2015-03-03T06:24:00Z,28.1530,-82.8010,,15.551,1111122 
COMPS,ioos:station:USF.COMPS:FHP:1,2015-03-03T06:30:00Z,28.1530,-82.8010,,15.423,1111122 
COMPS,ioos:station:USF.COMPS:FHP:1,2015-03-03T06:36:00Z,28.1530,-82.8010,,15.407,1111122 
COMPS,ioos:station:USF.COMPS:FHP:1,2015-03-03T06:42:00Z,28.1530,-82.8010,,15.346,1111122 
COMPS,ioos:station:USF.COMPS:FHP:1,2015-03-03T06:48:00Z,28.1530,-82.8010,,15.32,1111122 
COMPS,ioos:station:USF.COMPS:FHP:1,2015-03-03T06:54:00Z,28.1530,-82.8010,,15.327,1111122 
COMPS,ioos:station:USF.COMPS:FHP:1,2015-03-03T07:00:00Z,28.1530,-82.8010,,15.133,1111122 
COMPS,ioos:station:USF.COMPS:FHP:1,2015-03-03T07:06:00Z,28.1530,-82.8010,,12.495,1111122 
COMPS,ioos:station:USF.COMPS:FHP:1,2015-03-03T13:48:00Z,28.1530,-82.8010,,12.348,1111122 
COMPS,ioos:station:USF.COMPS:FHP:1,2015-03-03T13:54:00Z,28.1530,-82.8010,,15.813,1111122 
COMPS,ioos:station:USF.COMPS:FHP:1,2015-03-03T14:00:00Z,28.1530,-82.8010,,16.017,1111122 
COMPS,ioos:station:USF.COMPS:FHP:1,2015-03-03T14:06:00Z,28.1530,-82.8010,,15.929,1111122 
COMPS,ioos:station:USF.COMPS:FHP:1,2015-03-03T14:12:00Z,28.1530,-82.8010,,15.932,1111122 
COMPS,ioos:station:USF.COMPS:FHP:1,2015-03-03T14:18:00Z,28.1530,-82.8010,,16.056,1111122 
COMPS,ioos:station:USF.COMPS:FHP:1,2015-03-03T14:24:00Z,28.1530,-82.8010,,16.061,1111122 
COMPS,ioos:station:USF.COMPS:FHP:1,2015-03-03T14:30:00Z,28.1530,-82.8010,,16.115,1111122 
COMPS,ioos:station:USF.COMPS:FHP:1,2015-03-03T14:36:00Z,28.1530,-82.8010,,16.155,1111122 
COMPS,ioos:station:USF.COMPS:FHP:1,2015-03-03T14:42:00Z,28.1530,-82.8010,,16.207,1111122 
COMPS,ioos:station:USF.COMPS:FHP:1,2015-03-03T14:48:00Z,28.1530,-82.8010,,16.142,1111122 
COMPS,ioos:station:USF.COMPS:FHP:1,2015-03-03T14:54:00Z,28.1530,-82.8010,,16.198,1111122 
COMPS,ioos:station:USF.COMPS:FHP:1,2015-03-03T16:00:00Z,28.1530,-82.8010,,16.276,1111122 
COMPS,ioos:station:USF.COMPS:FHP:1,2015-03-03T16:06:00Z,28.1530,-82.8010,,16.277,1111122 
COMPS,ioos:station:USF.COMPS:FHP:1,2015-03-03T16:12:00Z,28.1530,-82.8010,,16.235,1111122 
COMPS,ioos:station:USF.COMPS:FHP:1,2015-03-03T16:18:00Z,28.1530,-82.8010,,16.43,1111122 
COMPS,ioos:station:USF.COMPS:FHP:1,2015-03-03T16:24:00Z,28.1530,-82.8010,,16.516,1111122 
COMPS,ioos:station:USF.COMPS:FHP:1,2015-03-03T16:30:00Z,28.1530,-82.8010,,16.457,1111122 
COMPS,ioos:station:USF.COMPS:FHP:1,2015-03-03T16:36:00Z,28.1530,-82.8010,,16.448,1111122 
COMPS,ioos:station:USF.COMPS:FHP:1,2015-03-03T16:42:00Z,28.1530,-82.8010,,16.513,1111122 
COMPS,ioos:station:USF.COMPS:FHP:1,2015-03-03T16:48:00Z,28.1530,-82.8010,,16.412,1111122 
COMPS,ioos:station:USF.COMPS:FHP:1,2015-03-03T16:54:00Z,28.1530,-82.8010,,16.406,1111122 
COMPS,ioos:station:USF.COMPS:FHP:1,2015-03-03T17:00:00Z,28.1530,-82.8010,,16.378,1111122 
COMPS,ioos:station:USF.COMPS:FHP:1,2015-03-03T17:06:00Z,28.1530,-82.8010,,16.399,1111122 
COMPS,ioos:station:USF.COMPS:FHP:1,2015-03-03T17:12:00Z,28.1530,-82.8010,,16.473,1111122 
COMPS,ioos:station:USF.COMPS:FHP:1,2015-03-03T17:18:00Z,28.1530,-82.8010,,16.492,1111122 
COMPS,ioos:station:USF.COMPS:FHP:1,2015-03-03T17:24:00Z,28.1530,-82.8010,,16.517,1111122 
COMPS,ioos:station:USF.COMPS:FHP:1,2015-03-03T17:30:00Z,28.1530,-82.8010,,16.435,1111122 